Regional Weather Roundup
Issued by NWS

Home | Current Version | Previous Version | Text Only | Print | Product List | Glossary Off
Versions: 1 2 3 4 5 6 7 8 9 10 11 12 13 14 15 16 17 18 19 20 21 22 23 24 25 26 27 28 29 30 31 32 33 34 35 36 37 38 39 40 41 42 43 44 45 46 47 48 49 50

878
ASUS43 KMKX 161321
RWRWI

WISCONSIN REGIONAL WEATHER ROUNDUP
NATIONAL WEATHER SERVICE MILWAUKEE/SULLIVAN WI
800 AM CDT WED AUG 16 2017

NOTE: "FAIR" INDICATES FEW OR NO CLOUDS BELOW 12,000 FEET WITH NO
SIGNIFICANT WEATHER AND/OR OBSTRUCTIONS TO VISIBILITY.

WIZ001-002-006>008-014>016-023>028-161400-
NORTHWEST WISCONSIN

CITY           SKY/WX    TMP DP  RH WIND       PRES   REMARKS
SUPERIOR ARPT    N/A     62  59  90 NE12G17   29.99F
ASHLAND        CLOUDY    56  54  93 CALM      30.03S
HAYWARD        PTSUNNY   63  57  81 SE8       30.01S
SIREN          CLOUDY    63  58  84 SE5       29.97S
CUMBERLAND     CLOUDY    61  57  88 SE7       29.99S
RICE LAKE      PTSUNNY   63  60  90 SE7       30.00F
CHETEK         PTSUNNY   63  60  92 SE7       29.99F
LADYSMITH      CLOUDY    62  59  90 SE6       30.03S
EAU CLAIRE     CLOUDY    63  60  90 SE6       29.97S
MENOMONIE      CLOUDY    63  63 100 E7        29.98S
NEW RICHMOND   CLOUDY    63  62  97 E7        29.96S
OSCEOLA        CLOUDY    64  64 100 SE8       29.98R
$$

WIZ003>005-009-010-017-018-161400-
NORTH CENTRAL WISCONSIN

CITY           SKY/WX    TMP DP  RH WIND       PRES   REMARKS
MANITOWISH WTR CLOUDY    59  59 100 SE6       30.06S FOG
ARBOR VITAE    PTSUNNY   60  58  92 SE5       30.07S
WOODRUFF       PTSUNNY   60  58  92 SE5       30.07S
RHINELANDER    CLOUDY    59  59 100 SE6       30.08S FOG
EAGLE RIVER    CLOUDY    58  57  99 SE6       30.09S
LAND O LAKES   CLOUDY    59  56  89 S6        30.10S
PHILLIPS       CLOUDY    59  58  97 E5        30.03F
TOMAHAWK         N/A     58  57  97 E3        30.06F FOG
MEDFORD        CLOUDY    61  59  94 E7        30.03F
MERRILL        NOT AVBL
$$

WIZ029-030-035-036-043>047-161400-
CENTRAL WISCONSIN

CITY           SKY/WX    TMP DP  RH WIND       PRES   REMARKS
WAUSAU         CLOUDY    59  58  96 E10       30.03F FOG
MOSINEE        CLOUDY    61  61 100 E6        30.06S
MARSHFIELD     CLOUDY    62  58  86 SE9       30.03F
STEVENS POINT  CLOUDY    60  60 100 E3        30.06R
WAUPACA        CLOUDY    64  64  97 E3        30.05S FOG
WAUTOMA        NOT AVBL
WISC RAPIDS    CLOUDY    64  60  87 SE8       30.05S
CAMP DOUGLAS   PTSUNNY   64  61  88 SE9       30.01F
$$

WIZ011>013-019>022-031-037>040-048>050-161400-
NORTHEAST WISCONSIN

CITY           SKY/WX    TMP DP  RH WIND       PRES   REMARKS
ANTIGO         CLOUDY    58  58 100 SE8       30.08F
SHAWANO        CLOUDY    64  59  86 NE7       30.07S
OCONTO         MOSUNNY   60  58  93 NE5       30.06F
STURGEON BAY   CLOUDY    64  61  90 NE3       30.07S
GREEN BAY      CLOUDY    66  65  96 NE7       30.06R
MANITOWOC      CLOUDY    64  62  93 N5        30.06R
APPLETON       PTSUNNY   64  63  94 E6        30.04S
CLINTONVILLE   CLOUDY    61  61 100 NE7       30.06S
OSHKOSH        MOSUNNY   66  61  84 E6        30.05R
$$

WIZ032>034-041-042-053>061-161400-
SOUTHWEST WISCONSIN

CITY           SKY/WX    TMP DP  RH WIND       PRES   REMARKS
LA CROSSE      CLOUDY    69  60  73 SE9       29.96F
SPARTA         CLOUDY    65  59  80 E5        29.99F
VIROQUA        CLOUDY    65  59  80 E14       29.98F
BOSCOBEL       SUNNY     68  59  73 VRB3      29.98F
PRAIRIE DU CHI SUNNY     65  58  78 E3        29.96S
PLATTEVILLE    MOSUNNY   63  63 100 E14       29.99F
$$

WIZ056-057-062-063-064-067-068-161400-
SOUTH CENTRAL WISCONSIN

CITY           SKY/WX    TMP DP  RH WIND       PRES   REMARKS
REEDSBURG      MOSUNNY   65  62  92 E5        30.01F
BARABOO/DELLS  PTSUNNY   63  60  88 E7        30.02F
LONE ROCK      MOSUNNY   66  62  87 E8        29.99F
MINERAL POINT  CLOUDY    66  61  82 E7        30.00F
MADISON        MOSUNNY   65  61  87 VRB5      30.01F
MIDDLETON      SUNNY     67  62  83 E8        30.02F
WATERTOWN      CLOUDY    64  63  97 E6        30.03S
MONROE         MOSUNNY   63  59  88 E8        30.00F
JANESVILLE     MOSUNNY   64  64 100 E6        30.01S
$$

WIZ051-052-058>065-066-070>072-161400-
SOUTHEAST WISCONSIN

CITY           SKY/WX    TMP DP  RH WIND       PRES   REMARKS
MILWAUKEE      MOSUNNY   71  65  81 NE7       30.03R
WAUKESHA       SUNNY     63  61  94 NE5       30.05R
MILWAUKEE/TIMM PTSUNNY   66  59  77 CALM      30.05R
RACINE         MOSUNNY   70  65  84 NE5       30.04S
KENOSHA        PTSUNNY   68  64  87 NE3       30.03S
FOND DU LAC    PTSUNNY   65  58  78 E6        30.05R
SHEBOYGAN      SUNNY     65  64  97 CALM      30.06R
WEST BEND      CLOUDY    63  61  94 E3        30.05S
JUNEAU         CLOUDY    62  60  94 NE3       30.05S
$$

LSZ147-162-161400-
LAKE SUPERIOR

STATION/POSITION TIME  TEMP    WIND        PRES    WAVE
                       AIR SEA DIR/SP/G            HT/PER
                 (UTC) (F)     (DEG/KT/KT) (MB)    (FT/S)
W MID LAKE BUOY  1250   61 60  120/ 10/ 12 1017.4F   1/ 3
DEVILS ISLAND    1300   61      70/ 10/ 11 1017.0F
SAXON HARBOR     1240   56     200/  1/  2 1016.6S
$$

LMZ867-665-643>646-161400-
LAKE MICHIGAN

STATION/POSITION TIME  TEMP    WIND        PRES    WAVE
                       AIR SEA DIR/SP/G            HT/PER
                 (UTC) (F)     (DEG/KT/KT) (MB)    (FT/S)
S GREEN BAY BUOY 1300   65 71   20/ 10/ 12 1017.8
N MID LAKE BUOY  1250   66 67   80/  6/  8 1018.7S   1/ 3
NORTHPORT PIER   1240   65      10/  7/  8 1018.3S
KEWAUNEE LAKESHO 1254   68      10/  4/  8 1016.9R
SHEBOYGAN LAKESH 1300   67      30/  6/  7 1017.3R
PORT WASHINGTON  1240   69     350/  2/  6 1017.9R
ATWATER BUOY     1209   69 71   70/  6/  8 1017.0R
MILWAUKEE LAKESH 1250   69      40/  6/  7   N/A
S MID LAKE BUOY  1250   70 71   70/  4/  4 1016.8R   1/ 4
KENOSHA   LAKESH 1300   70      60/  7/  8 1016.6
$$

TC  - TEMPERATURE IN CELSIUS
VSB - VISIBILITY IN STATUTE MILES
WCI - WIND CHILL INDEX
HX  - HEAT INDEX





USA.gov is the U.S. government's official web portal to all federal, state and local government web resources and services.